Sunshine Coast Airport Observation History
Time Wind Speed Temp Pressure Rel. Hum Rain
24/10:00am SW 5-7 kts 19.5°c 1023.1 hPa 84% 0.0mm
24/09:30am SW 2-5 kts 18.3°c 1022.8 hPa 87% 0.0mm
24/09:00am SSE 4-6 kts 17.3°c 1022.9 hPa 94% 2.0mm
24/08:30am WSW 1-3 kts 16.3°c 1022.6 hPa 96% 2.0mm
24/08:00am WSW 2-4 kts 15.4°c 1022.7 hPa 96% 2.0mm
24/07:30am CALM 0 kts 14.3°c 1022.5 hPa 96% 2.0mm
24/07:00am SW 3-4 kts 14.4°c 1022.4 hPa 96% 2.0mm
24/06:33am SW 5-6 kts 14.2°c 1022.3 hPa 96% 2.0mm
24/06:30am SW 5-6 kts 14.2°c 1022.5 hPa 96% 2.0mm
24/06:07am W 2-4 kts 14.6°c 1021.9 hPa 96% 2.0mm
24/06:00am CALM 0 kts 14.7°c 1021.8 hPa 96% 2.0mm
24/05:30am W 2-4 kts 15.0°c 1022.1 hPa 96% 2.0mm
24/05:02am SSW 6-8 kts 15.3°c 1022.0 hPa 96% 2.0mm
24/05:00am SSW 7-9 kts 15.3°c 1022.1 hPa 96% 2.0mm
24/04:40am W 6-7 kts 15.1°c 1022.2 hPa 96% 1.6mm
24/04:30am W 6 kts 15.0°c 1022.3 hPa 96% 1.4mm
24/04:00am WSW 3-4 kts 14.8°c 1021.8 hPa 96% 1.4mm
24/03:30am WNW 5-6 kts 15.0°c 1022.3 hPa 96% 1.4mm
24/03:17am WNW 5-7 kts 15.0°c 1022.3 hPa 96% 1.4mm
24/03:00am W 7-9 kts 15.1°c 1022.8 hPa 95% 1.4mm
24/02:55am W 7-9 kts 15.1°c 1022.7 hPa 95% 1.4mm
24/02:30am WSW 4-6 kts 15.1°c 1022.9 hPa 95% 1.2mm
24/02:27am W 4-5 kts 15.2°c 1023.0 hPa 95% 1.2mm
24/02:25am W 5 kts 15.2°c 1023.0 hPa 95% 1.2mm
24/02:00am WNW 2-4 kts 15.0°c 1022.9 hPa 94% 1.2mm
24/01:30am WNW 4-5 kts 15.2°c 1023.5 hPa 93% 1.2mm
24/01:02am SW 5-6 kts 15.8°c 1023.8 hPa 91% 0.6mm
24/01:00am SW 5-7 kts 15.8°c 1023.8 hPa 91% 0.4mm
24/12:40am SSW 6-8 kts 16.0°c 1023.8 hPa 89% 0.2mm
24/12:30am SSW 7-9 kts 16.2°c 1024.1 hPa 89% 0.2mm
24/12:05am WNW 8-12 kts 15.8°c 1024.2 hPa 91% 0.2mm
24/12:00am NW 8-12 kts 15.5°c 1024.3 hPa 91% 0.2mm
Time Wind Speed Temp Pressure Rel. Hum Rain
23/11:30pm SSW 5 kts 16.8°c 1024.2 hPa 89% 0.2mm
23/11:00pm ESE 7-9 kts 18.2°c 1024.3 hPa 84% 0.2mm
23/10:30pm S 4-6 kts 16.0°c 1024.4 hPa 90% 0.2mm
23/10:00pm W 3-6 kts 15.7°c 1024.4 hPa 88% 0.2mm
23/09:30pm NW 3-5 kts 15.5°c 1024.1 hPa 88% 0.2mm
23/09:00pm WSW 8-10 kts 16.1°c 1024.0 hPa 85% 0.2mm
23/08:30pm NE 10-12 kts 19.5°c 1023.7 hPa 67% 0.2mm
23/08:00pm NE 12-16 kts 19.8°c 1023.5 hPa 65% 0.2mm
23/07:30pm NE 7-13 kts 19.8°c 1023.4 hPa 70% 0.2mm
23/07:00pm N 5-10 kts 15.8°c 1023.5 hPa 81% 0.2mm
23/06:30pm WNW 1-6 kts 17.4°c 1023.3 hPa 80% 0.2mm
23/06:00pm CALM 0 kts 16.2°c 1023.4 hPa 83% 0.2mm
23/05:30pm CALM 0 kts 16.0°c 1023.3 hPa 81% 0.2mm
23/05:00pm NW 3-4 kts 17.9°c 1023.6 hPa 75% 0.2mm
23/04:30pm NW 5-6 kts 18.9°c 1023.7 hPa 73% 0.2mm
23/04:00pm NNW 4-6 kts 19.8°c 1023.8 hPa 72% 0.2mm
23/03:30pm NNE 7-10 kts 20.2°c 1023.8 hPa 69% 0.2mm
23/03:00pm E 9-11 kts 20.6°c 1023.8 hPa 65% 0.2mm
23/02:30pm ENE 10-14 kts 21.0°c 1024.1 hPa 64% 0.2mm
23/02:00pm ENE 8-10 kts 21.7°c 1024.0 hPa 59% 0.2mm
23/01:30pm E 9-11 kts 22.8°c 1024.4 hPa 56% 0.2mm
23/01:00pm E 7-9 kts 22.2°c 1025.1 hPa 60% 0.2mm
23/12:30pm E 9-11 kts 21.2°c 1025.5 hPa 59% 0.2mm
23/12:00pm E 12-15 kts 22.4°c 1026.1 hPa 54% 0.2mm
23/11:30am ENE 10-13 kts 22.9°c 1026.5 hPa 48% 0.2mm
23/11:00am ENE 9-13 kts 22.5°c 1026.8 hPa 49% 0.2mm
23/10:30am ESE 7-9 kts 20.4°c 1027.2 hPa 63% 0.2mm
23/10:00am SSE 6-8 kts 20.6°c 1027.5 hPa 66% 0.2mm
23/09:30am S 5-7 kts 19.0°c 1027.6 hPa 72% 0.2mm
23/09:00am SSW 6-8 kts 17.6°c 1027.8 hPa 82% 0.2mm
23/08:30am SW 6-8 kts 16.0°c 1027.8 hPa 92% 0.2mm
23/08:00am SW 5-8 kts 15.0°c 1027.7 hPa 93% 0.2mm
23/07:30am SSW 6-8 kts 14.6°c 1027.1 hPa 94% 0.2mm
23/07:00am SSW 7-9 kts 14.2°c 1026.7 hPa 94% 0.2mm
23/06:30am SSW 5-7 kts 13.7°c 1026.7 hPa 95% 0.2mm
23/06:00am WSW 5-6 kts 12.7°c 1026.7 hPa 93% 0.2mm
23/05:30am SSW 5-6 kts 13.7°c 1026.0 hPa 91% 0.2mm
23/05:00am SSW 7-8 kts 14.1°c 1025.9 hPa 91% 0.2mm
23/04:30am S 10-13 kts 14.4°c 1025.9 hPa 91% 0.2mm
23/04:00am S 9-11 kts 14.6°c 1025.8 hPa 93% 0.2mm
23/03:30am SSW 9-12 kts 14.6°c 1026.3 hPa 93% 0.2mm
23/03:00am WSW 6-8 kts 14.5°c 1026.5 hPa 91% 0.2mm
23/02:30am SSW 7-11 kts 14.8°c 1026.3 hPa 90% 0.2mm
23/02:00am SSW 9-12 kts 15.1°c 1026.2 hPa 90% 0.2mm
23/01:30am S 11-14 kts 14.7°c 1026.4 hPa 89% 0.2mm
23/01:00am S 11-15 kts 14.8°c 1026.7 hPa 89% 0.2mm
23/12:30am S 11-15 kts 14.7°c 1026.9 hPa 89% 0.2mm
23/12:00am S 11-14 kts 15.1°c 1026.8 hPa 88% 0.2mm
Time Wind Speed Temp Pressure Rel. Hum Rain
22/11:30pm S 13-19 kts 15.3°c 1028.1 hPa 85% 0.2mm
22/11:00pm SSW 8-11 kts 15.9°c 1028.2 hPa 83% 0.2mm
22/10:30pm SSW 11-16 kts 15.8°c 1028.0 hPa 83% 0.2mm
22/10:00pm SSW 10-13 kts 15.9°c 1027.9 hPa 84% 0.2mm
22/09:30pm S 10-12 kts 15.7°c 1027.8 hPa 85% 0.2mm
22/09:00pm S 11-14 kts 16.0°c 1028.1 hPa 84% 0.2mm
22/08:30pm S 12-15 kts 16.2°c 1027.8 hPa 84% 0.2mm
22/08:00pm SSW 11-14 kts 16.6°c 1027.4 hPa 80% 0.2mm
22/07:30pm S 12-15 kts 17.1°c 1027.5 hPa 81% 0.2mm
22/07:00pm S 13-18 kts 16.7°c 1027.3 hPa 82% 0.2mm
22/06:30pm S 9-11 kts 16.0°c 1027.0 hPa 83% 0.2mm
22/06:00pm SSW 9-11 kts 16.7°c 1026.8 hPa 79% 0.2mm
22/05:30pm SSW 9-11 kts 17.4°c 1026.7 hPa 80% 0.2mm
22/05:00pm S 10-15 kts 17.5°c 1026.5 hPa 80% 0.2mm
22/04:30pm WSW 5-7 kts 17.2°c 1026.1 hPa 88% 0.2mm
22/04:00pm WSW 5-7 kts 16.8°c 1025.8 hPa 89% 0.2mm
22/03:30pm SW 5-7 kts 17.1°c 1025.5 hPa 90% 0.0mm
22/03:11pm ESE 5-8 kts 16.5°c 1025.6 hPa 91% 0.0mm
22/03:00pm E 6-10 kts 16.4°c 1025.6 hPa 90% 0.0mm
22/02:54pm E 7-10 kts 16.3°c 1025.7 hPa 89% 0.0mm
22/02:30pm S 12-18 kts 16.5°c 1025.8 hPa 89% 0.0mm
22/02:14pm S 13-17 kts 17.3°c 1025.5 hPa 88% 0.0mm
22/02:00pm S 16-20 kts 16.8°c 1025.7 hPa 87% 0.0mm
22/01:58pm SSE 15-20 kts 16.6°c 1025.6 hPa 85% 0.0mm
22/01:30pm S 13-17 kts 19.0°c 1025.7 hPa 74% 0.0mm
22/01:00pm S 12-15 kts 17.6°c 1025.9 hPa 88% 0.0mm
22/12:36pm S 15-19 kts 16.4°c 1026.5 hPa 86% 0.0mm
22/12:30pm S 13-18 kts 16.6°c 1026.5 hPa 91% 0.0mm
22/12:15pm SSE 15-22 kts 16.6°c 1026.6 hPa 83% 0.0mm
22/12:00pm SSE 17-23 kts 17.4°c 1026.9 hPa 77% 0.0mm
22/11:30am SSE 19-24 kts 19.9°c 1027.2 hPa 66% 0.0mm
22/11:00am SSE 16-20 kts 18.8°c 1027.2 hPa 65% 0.0mm
22/10:30am SSE 17-23 kts 18.8°c 1027.5 hPa 66% 0.0mm
22/10:00am S 14-19 kts 18.8°c 1027.6 hPa 67% 0.0mm
22/09:30am S 14-19 kts 17.5°c 1027.8 hPa 69% 0.0mm
22/09:00am S 15-19 kts 17.5°c 1027.7 hPa 66% 0.0mm
22/08:30am SSW 15-19 kts 17.2°c 1027.0 hPa 68% 0.0mm
22/08:00am SSW 12-17 kts 15.7°c 1026.4 hPa 72% 0.0mm
22/07:30am SSW 11-15 kts 14.5°c 1026.3 hPa 76% 0.0mm
22/07:00am SSW 11-14 kts 14.1°c 1025.9 hPa 78% 0.0mm
22/06:30am SSW 11-16 kts 14.0°c 1025.5 hPa 78% 0.0mm
22/06:00am S 13-17 kts 14.2°c 1024.6 hPa 78% 0.0mm
22/05:30am SSW 10-15 kts 13.7°c 1024.5 hPa 78% 0.0mm
22/05:00am SSW 12-15 kts 14.0°c 1024.2 hPa 76% 0.0mm
22/04:30am SSW 11-16 kts 14.0°c 1024.2 hPa 76% 0.0mm
22/04:00am SSW 11-14 kts 14.2°c 1024.2 hPa 76% 0.0mm
22/03:30am SSW 11-14 kts 14.1°c 1024.3 hPa 75% 0.0mm
22/03:00am SSW 11-15 kts 14.3°c 1024.2 hPa 75% 0.0mm
22/02:30am SSW 13-18 kts 14.5°c 1024.0 hPa 74% 0.0mm
22/02:00am SSW 12-15 kts 14.3°c 1024.0 hPa 75% 0.0mm
22/01:30am SSW 12-16 kts 14.5°c 1023.9 hPa 75% 0.0mm
22/01:00am SSW 11-15 kts 14.5°c 1023.9 hPa 76% 0.0mm
22/12:30am SSW 10-12 kts 14.5°c 1023.7 hPa 78% 0.0mm
22/12:00am S 9-11 kts 14.4°c 1023.8 hPa 81% 0.0mm